Weather History for KSMS - February, 2014

Change the Weather History Date:

Thursday, February 27, 2014

  Actual Average Record
Temperature  
Mean Temperature 48 °F -  
Max Temperature 64 °F 60 °F 80 °F (2011)
Min Temperature 33 °F 35 °F 30 °F (2015)
Degree Days  
Heating Degree Days 16    
Moisture  
Dew Point 38 °F    
Average Humidity 78    
Maximum Humidity 100    
Minimum Humidity 32    
Precipitation  
Precipitation 0.00 in - - ()
Sea Level Pressure  
Sea Level Pressure 29.88 in    
Wind  
Wind Speed 2 mph (WSW)    
Max Wind Speed 12 mph    
Max Gust Speed 17 mph    
Visibility 7 miles    
Events Fog , Rain    
Averages and records for this station are not official NWS values.
T = Trace of Precipitation, MM = Missing Value Source: NWS Daily Summary

Daily Weather History Graph

Daily Weather History Graph

Search for Another Location

Airport or City:

Trip Planner

Search our weather history database for the weather conditions in past years. The results will help you decide how hot, cold, wet, or windy it might be!

Date:

Astronomy

Feb. 27, 2014 Rise Set
Actual Time 6:52 AM EST 6:16 PM EST
Civil Twilight 6:27 AM EST 6:41 PM EST
Nautical Twilight 5:58 AM EST 7:10 PM EST
Astronomical Twilight 5:29 AM EST 7:39 PM EST
Moon 5:20 AM EST (2/27) 4:42 PM EST (2/27)
Length of Visible Light 12h 13m
Length of Day
11h 23m
Waning Crescent, 4% of the Moon is Illuminated
Feb 27
Waning Crescent
Mar 1
New
Mar 8
First Quarter
Mar 16
Full
Mar 23
Last Quarter

Hourly Weather History & Observations

Time (EST) Temp. Windchill Dew Point Humidity Pressure Visibility Wind Dir Wind Speed Gust Speed Precip Events Conditions
12:15 AM 41.0 °F - 41.0 °F 100% 29.87 in 3.0 mi Calm Calm - N/A   Clear
12:35 AM 41.0 °F - 41.0 °F 100% 29.87 in 3.0 mi Calm Calm - N/A   Clear
12:55 AM 41.0 °F - 41.0 °F 100% 29.87 in 4.0 mi Calm Calm - N/A   Clear
1:15 AM 39.2 °F - 39.2 °F 100% 29.87 in 3.0 mi Calm Calm - N/A   Clear
1:35 AM 39.2 °F - 39.2 °F 100% 29.86 in 2.5 mi Calm Calm - N/A   Clear
1:55 AM 39.2 °F - 39.2 °F 100% 29.86 in 0.5 mi Calm Calm - N/A   Mist
2:15 AM 37.4 °F - 37.4 °F 100% 29.86 in 1.2 mi Calm Calm - N/A   Clear
2:35 AM 39.2 °F - 39.2 °F 100% 29.86 in 0.5 mi Calm Calm - N/A   Mostly Cloudy
2:55 AM 37.4 °F - 37.4 °F 100% 29.86 in 0.8 mi Calm Calm - N/A   Mist
3:15 AM 37.4 °F - 37.4 °F 100% 29.85 in 2.5 mi Calm Calm - N/A   Mist
3:35 AM 35.6 °F - 35.6 °F 100% 29.85 in 0.5 mi Calm Calm - N/A   Mist
3:55 AM 35.6 °F - 35.6 °F 100% 29.85 in 0.5 mi Calm Calm - N/A Fog Fog
4:15 AM 35.6 °F - 35.6 °F 100% 29.86 in 0.2 mi Calm Calm - N/A Fog Fog
4:35 AM 35.6 °F - 35.6 °F 100% 29.86 in 0.2 mi Calm Calm - N/A Fog Fog
4:55 AM 35.6 °F - 35.6 °F 100% 29.86 in 0.5 mi Calm Calm - N/A Fog Fog
5:15 AM 35.6 °F - 35.6 °F 100% 29.87 in 3.0 mi Calm Calm - N/A   Clear
5:35 AM 35.6 °F - 35.6 °F 100% 29.87 in 0.2 mi Calm Calm - N/A Fog Fog
5:55 AM 35.6 °F - 35.6 °F 100% 29.87 in 0.2 mi Calm Calm - N/A Fog Fog
6:15 AM 35.6 °F - 35.6 °F 100% 29.88 in 0.2 mi Calm Calm - N/A Fog Fog
6:35 AM 33.8 °F - 33.8 °F 100% 29.88 in 0.2 mi Calm Calm - N/A Fog Fog
6:55 AM 33.8 °F - 33.8 °F 100% 29.89 in 4.0 mi Calm Calm - N/A   Clear
7:15 AM 33.8 °F - 33.8 °F 100% 29.90 in 6.0 mi Calm Calm - N/A   Clear
7:35 AM 35.6 °F - 35.6 °F 100% 29.90 in 7.0 mi Calm Calm - N/A   Clear
7:55 AM 37.4 °F - 37.4 °F 100% 29.90 in 8.0 mi Calm Calm - N/A Rain Light Rain
8:15 AM 39.2 °F - 39.2 °F 100% 29.91 in 10.0 mi Calm Calm - N/A Rain Light Rain
8:35 AM 39.2 °F - 39.2 °F 100% 29.91 in 10.0 mi Calm Calm - N/A   Clear
8:55 AM 42.8 °F 41.1 °F 39.2 °F 87% 29.91 in 10.0 mi ESE 3.5 mph - N/A   Clear
9:15 AM 44.6 °F - 39.2 °F 81% 29.91 in 10.0 mi Calm Calm - N/A   Clear
9:35 AM 46.4 °F - 41.0 °F 81% 29.91 in 10.0 mi Calm Calm - N/A   Clear
9:55 AM 48.2 °F - 41.0 °F 76% 29.90 in 10.0 mi Calm Calm - N/A   Clear
10:15 AM 50.0 °F - 41.0 °F 71% 29.90 in 10.0 mi Calm Calm - N/A   Clear
10:35 AM 51.8 °F - 42.8 °F 71% 29.89 in 10.0 mi SSW 6.9 mph 12.7 mph N/A   Clear
10:55 AM 53.6 °F - 42.8 °F 67% 29.89 in 10.0 mi Variable 6.9 mph - N/A   Clear
11:15 AM 53.6 °F - 44.6 °F 72% 29.90 in 10.0 mi Variable 6.9 mph - N/A   Clear
11:35 AM 55.4 °F - 42.8 °F 63% 29.89 in 10.0 mi SW 9.2 mph - N/A   Clear
11:55 AM 55.4 °F - 42.8 °F 63% 29.88 in 10.0 mi SW 11.5 mph - N/A   Clear
12:15 PM 57.2 °F - 42.8 °F 59% 29.87 in 10.0 mi Variable 6.9 mph 15.0 mph N/A   Clear
12:35 PM 57.2 °F - 42.8 °F 59% 29.86 in 10.0 mi West 4.6 mph 16.1 mph N/A   Clear
12:55 PM 59.0 °F - 42.8 °F 55% 29.86 in 10.0 mi WSW 8.1 mph - N/A   Clear
1:15 PM 59.0 °F - 41.0 °F 51% 29.85 in 10.0 mi SW 9.2 mph 15.0 mph N/A   Clear
1:35 PM 59.0 °F - 39.2 °F 48% 29.84 in 10.0 mi WSW 6.9 mph 15.0 mph N/A   Clear
1:55 PM 60.8 °F - 37.4 °F 42% 29.84 in 10.0 mi West 9.2 mph 15.0 mph N/A   Clear
2:15 PM 60.8 °F - 39.2 °F 45% 29.83 in 10.0 mi SSW 9.2 mph 17.3 mph N/A   Clear
2:35 PM 60.8 °F - 37.4 °F 42% 29.83 in 10.0 mi Variable 4.6 mph 13.8 mph N/A   Clear
2:55 PM 62.6 °F - 37.4 °F 39% 29.82 in 10.0 mi SW 10.4 mph 16.1 mph N/A   Clear
3:15 PM 62.6 °F - 35.6 °F 37% 29.82 in 10.0 mi WSW 8.1 mph 16.1 mph N/A   Clear
3:35 PM 62.6 °F - 32.0 °F 32% 29.82 in 10.0 mi West 6.9 mph 16.1 mph N/A   Clear
3:55 PM 64.4 °F - 33.8 °F 32% 29.83 in 10.0 mi West 9.2 mph - N/A   Clear
4:15 PM 62.6 °F - 33.8 °F 34% 29.83 in 10.0 mi WSW 6.9 mph 13.8 mph N/A   Clear
4:35 PM 62.6 °F - 33.8 °F 34% 29.83 in 10.0 mi West 10.4 mph 16.1 mph N/A   Clear
4:55 PM 62.6 °F - 32.0 °F 32% 29.84 in 10.0 mi NW 4.6 mph 11.5 mph N/A   Clear
5:15 PM 62.6 °F - 33.8 °F 34% 29.84 in 10.0 mi WNW 6.9 mph - N/A   Clear
5:35 PM 60.8 °F - 35.6 °F 39% 29.85 in 10.0 mi NW 3.5 mph - N/A   Clear
5:55 PM 60.8 °F - 35.6 °F 39% 29.85 in 10.0 mi NW 4.6 mph - N/A   Clear
6:15 PM 59.0 °F - 35.6 °F 42% 29.86 in 10.0 mi Calm Calm - N/A   Clear
6:35 PM 53.6 °F - 39.2 °F 58% 29.86 in 10.0 mi Calm Calm - N/A   Clear
6:55 PM 51.8 °F - 39.2 °F 62% 29.87 in 10.0 mi Calm Calm - N/A   Clear
7:15 PM 50.0 °F - 41.0 °F 71% 29.88 in 10.0 mi Calm Calm - N/A   Clear
7:35 PM 48.2 °F - 42.8 °F 82% 29.90 in 10.0 mi Calm Calm - N/A   Clear
7:55 PM 46.4 °F - 41.0 °F 81% 29.90 in 10.0 mi Calm Calm - N/A   Clear
8:15 PM 44.6 °F - 41.0 °F 87% 29.91 in 10.0 mi Calm Calm - N/A   Clear
8:35 PM 42.8 °F - 41.0 °F 93% 29.91 in 10.0 mi Calm Calm - N/A   Clear
8:55 PM 42.8 °F - 39.2 °F 87% 29.92 in 10.0 mi Calm Calm - N/A   Clear
9:15 PM 41.0 °F - 39.2 °F 93% 29.93 in 10.0 mi Calm Calm - N/A   Clear
9:35 PM 41.0 °F - 41.0 °F 100% 29.93 in 10.0 mi Calm Calm - N/A   Clear
9:55 PM 41.0 °F - 39.2 °F 93% 29.95 in 10.0 mi Calm Calm - N/A   Clear
10:15 PM 41.0 °F - 41.0 °F 100% 29.95 in 10.0 mi Calm Calm - N/A   Clear
10:35 PM 39.2 °F - 39.2 °F 100% 29.96 in 10.0 mi Calm Calm - N/A   Clear
10:55 PM 39.2 °F - 39.2 °F 100% 29.96 in 10.0 mi Calm Calm - N/A   Clear
11:15 PM 39.2 °F - 39.2 °F 100% 29.96 in 10.0 mi Calm Calm - N/A   Clear
11:35 PM 39.2 °F - 37.4 °F 93% 29.96 in 9.0 mi Calm Calm - N/A   Clear
11:55 PM 37.4 °F - 37.4 °F 100% 29.96 in 10.0 mi Calm Calm - N/A   Clear